Find Starlink 2094

NORAD ID: 47375 Int'l Des: 2021-005 Owner: SPXS Country: US Constellation: starlink operational
LEOCIRCULARSTARLINK_TYPE

当前视图

正在加载3D地球...

About Starlink 2094

Starlink 2094 (NORAD 47375) is a starlink constellation satellite (v1.0) launched Jan 20, 2021 by SPXS of US. It operates in LEO, CIRCULAR, STARLINK_TYPE orbit with a mass of 260.00 kg.

即将过境

Passes for default location (London). Set your location on the main map for personalized predictions.

高度历史

Loading altitude history...

两行轨道根数

1 47375U 21005AC 26265.30822800 .00002233 00000-0 83658-4 0 9992
2 47375 53.1597 227.4920 0001318 83.6904 276.4248 15.31719893313150
Epoch: Sep 22, 2026 • Age: 17 hours

当前状态

高度 470.5 km
远地点 / 近地点 N/A
速度 7.63 km/s
星下点 14.89°N, 136.89°W
发射日期 Jan 20, 2021
运行时间 5.6 years
类型 internet

技术详情

分类 Payload
质量 260.00 kg
干质量 248.00 kg
长度 0.20 m
跨度 9.00 m
形状 ? Box + pan
制造商 SPXS
平台类型 Starlink
阶段状态 In Orbit
所有者/国家 SPXS/US

Most Searched